Regional Weather Roundup
Issued by NWS

Home | Current Version | Previous Version | Graphics & Text | Print | Product List | Glossary On
Versions: 1 2 3 4 5 6 7 8 9 10 11 12 13 14 15 16 17 18 19 20 21 22 23 24 25 26 27 28 29 30 31 32 33 34 35 36 37 38 39 40 41 42 43 44 45 46 47 48 49 50
000
ASUS43 KOAX 280010
RWRNE

WEATHER ROUNDUP FOR NEBRASKA
NATIONAL WEATHER SERVICE OMAHA NE
700 PM CDT WED JUL 27 2016

NOTES: SATELLITE DATA IS BEING USED TO AUGMENT CLOUD COVER ABOVE
       12000 FEET.
       "FAIR" INDICATES FEW OR NO CLOUDS BELOW 12,000 FEET WITH NO
       SIGNIFICANT WEATHER AND/OR OBSTRUCTIONS TO VISIBILITY.

  * THESE STATIONS DO NOT REPORT WEATHER SUCH AS RAIN...SNOW OR FOG.

NEZ001>004-019>022-054>056-280100-
NEBRASKA PANHANDLE

CITY           SKY/WX    TMP DP  RH WIND       PRES   REMARKS
SCOTTSBLUFF    SUNNY     85  56  37 E14       30.07F THUNDER
6HR MIN TEMP:  78; 6HR MAX TEMP:  90;

ALLIANCE       SUNNY     85  53  33 NE13      30.08F
6HR MIN TEMP:  81; 6HR MAX TEMP:  90;

CHADRON        SUNNY     83  57  41 NE13      30.07F
6HR MIN TEMP:  80; 6HR MAX TEMP:  85;

KIMBALL        CLOUDY    82  53  35 E15       30.08F
SIDNEY         CLOUDY    83  59  44 E15       30.12S
6HR MIN TEMP:  82; 6HR MAX TEMP:  90;

$$

NEZ057>060-069>072-079>082-280100-
SOUTHWEST NEBRASKA

CITY           SKY/WX    TMP DP  RH WIND       PRES   REMARKS
NORTH PLATTE   SUNNY     85  63  47 NE7       30.05S
6HR MIN TEMP:  81; 6HR MAX TEMP:  88;

IMPERIAL       SUNNY     88  58  36 NE9       30.03F
6HR MIN TEMP:  83; 6HR MAX TEMP:  90;

LEXINGTON      MOSUNNY   82  70  65 SE6       30.03F
MCCOOK         SUNNY     88  63  43 E8        30.00F
6HR MIN TEMP:  70; 6HR MAX TEMP:  89; 6HR PCP:  0.01;

OGALLALA       SUNNY     86  54  32 E8        30.06F
$$

NEZ005>010-023>029-035>040-094-280100-
NORTH CENTRAL NEBRASKA

CITY           SKY/WX    TMP DP  RH WIND       PRES   REMARKS
VALENTINE      LGT RAIN  76  62  62 MISG      30.08R
6HR MIN TEMP:  65; 6HR MAX TEMP:  85; 6HR PCP:  0.02;

AINSWORTH      CLOUDY    69  63  79 CALM      30.08S
BROKEN BOW     PTSUNNY   83  67  58 N5        30.05R THUNDER
6HR MIN TEMP:  76; 6HR MAX TEMP:  85;

O`NEILL        TSTM      65  61  85 NW20G28   30.08R
ORD            SUNNY     79  66  64 NW6       30.02R
6HR MIN TEMP:  79; 6HR MAX TEMP:  86;

THEDFORD       MOSUNNY   76  57  51 E12G17    30.11R
$$

NEZ041-046>049-061>064-073>077-083>087-280100-
SOUTH CENTRAL NEBRASKA

CITY           SKY/WX    TMP DP  RH WIND       PRES   REMARKS
GRAND ISLAND   SUNNY     85  64  49 E6        30.00S
6HR MIN TEMP:  82; 6HR MAX TEMP:  89;

AURORA         SUNNY     83  66  56 E5        29.98F
HASTINGS       SUNNY     84  68  58 NE7       30.01R
6HR MIN TEMP:  81; 6HR MAX TEMP:  87;

HEBRON         SUNNY     86  66  50 N5        29.96S
HOLDREGE       SUNNY     82  66  58 CALM      30.02S
KEARNEY *      SUNNY     90  27  10 CALM      30.02F
YORK           SUNNY     82  68  61 NE3       29.98F
$$

NEZ011>018-030>034-042>045-280100-
NORTHEAST NEBRASKA

CITY           SKY/WX    TMP DP  RH WIND       PRES   REMARKS
NORFOLK        SUNNY     83  63  50 CALM      29.97S
6HR MIN TEMP:  81; 6HR MAX TEMP:  86;

ALBION         MOSUNNY   80  66  62 CALM      30.01R
BLAIR          SUNNY     83  70  63 NW5       29.94F
FREMONT        SUNNY     83  65  52 N5        29.94F
TEKAMAH        SUNNY     85  67  54 NW6       29.93F
6HR MIN TEMP:  81; 6HR MAX TEMP:  88;

WAYNE          CLOUDY    80  68  67 NW5       29.97F
$$

NEZ050>053-065>068-078-088>093-280100-
SOUTHEAST NEBRASKA

CITY           SKY/WX    TMP DP  RH WIND       PRES   REMARKS
LINCOLN        SUNNY     87  68  52 N8        29.94F HX  90
6HR MIN TEMP:  85; 6HR MAX TEMP:  89;

OMAHA EPPLEY   MOSUNNY   85  70  60 N7        29.92F
6HR MIN TEMP:  82; 6HR MAX TEMP:  88;

BEATRICE       SUNNY     86  66  50 N9        29.94F
FALLS CITY     SUNNY     87  70  56 CALM      29.89F HX  92
6HR MIN TEMP:  84; 6HR MAX TEMP:  89;

NEBRASKA CITY  SUNNY     83  68  59 NW6       29.92F
PLATTSMOUTH    SUNNY     84  67  56 W3        29.92F
$$

NEZ044-045-051>053-067-280100-
OMAHA AREA

CITY           SKY/WX    TMP DP  RH WIND       PRES   REMARKS
OMAHA EPPLEY   MOSUNNY   85  70  60 N7        29.92F
6HR MIN TEMP:  82; 6HR MAX TEMP:  88;

BLAIR          SUNNY     83  70  63 NW5       29.94F
FREMONT        SUNNY     83  65  52 N5        29.94F
MILLARD        SUNNY     86  70  59 CALM      29.92S HX  90
OFFUTT AFB     SUNNY     85  71  63 VRB1      29.91F
PLATTSMOUTH    SUNNY     84  67  56 W3        29.92F
WAHOO          FAIR      84  68  57 N5        29.94F
$$



USA.gov is the U.S. government's official web portal to all federal, state and local government web resources and services.